Weather in Makanchi

Kazakhstan     46°46′53″N   82°01′25″E
temp.,
°C
wind,
m/s
gust,
m/s
humid.,
%
clouds,
%
prec.,
mm/h
press.,
hPa
HPBL,
m
24 january, mon
mon2400:00−13ene2282100 0.0 103313
03:00−13ene2283100 0.0 103312
06:00−14ene2284100 0.0 103312
09:00−13ene2285100 0.0 103417
12:00−8ese1274100 0.0 103372
15:00−8sse0184100 0.0 103211
18:00−12ne1187100 0.0 103310
21:00−13ene2288100 0.0 103312
25 january, tue
tue2500:00−13ene1187100 0.0 103310
03:00−14ene2288100 0.0 103310
06:00−14ene2288100 0.0 103312
09:00−16ene228762 0.0 103417
12:00−10e228365 0.0 103385
15:00−10ene118647 0.0 103212
18:00−16ene228779 0.0 103511
21:00−17ene328592 0.0 103615
26 january, wed
wed2600:00−16ne3283100 0.0 103618
03:00−16ene2284100 0.0 103622
06:00−17ene328574 0.0 103719
09:00−15ene338798 0.0 103837
12:00−10e248590 0.0 1037124
15:00−10e228916 0.0 103631
18:00−15ene229266 0.0 103810
21:00−15e2290100 0.0 103916
27 january, thu
thu2700:00−12ene2291100 0.0 103728
03:00−11e2296100 0.1 103624
06:00−11e1196100 0.2 103614
09:00−9e1196100 0.3 103635
12:00−8s2392100 0.6 1036245
15:00−9sse229578 0.1 103566
18:00−15e2210087 0.1 10369
21:00−16ene229999 0.1 103715
28 january, fri
fri2800:00−16ene229698 0.1 103616
03:00−18ene329351 0.0 103516
06:00−18ene33919 0.0 103520
09:00−16ene35875 0.0 103449
12:00−10e410791 0.0 1031271
15:00−9e38801 0.0 1028156
18:00−16ene22821 0.0 103013
21:00−17ene22790 0.0 103014